This demonstration page uses our WeatherBlox Daily Observations layout. Learn more.

Left ArrowRight Arrow

36.17497, -115.13722

Hourly Observations for August 24, 2020

Temp ( °F °C ) Dew Point ( °F °C ) Humidity (%) Winds ( mph kmh ) Pressure ( in mb ) Visibility ( mi km ) Precip ( " mm )
12:53 am 00:53 Clear 91 32.8 54 12.2 28 28 E 9 15 29.83 1010 10 16 N/A
1:53 am 01:53 Clear 89 31.7 55 12.8 31 31 E 9 15 29.83 1010 10 16 N/A
2:53 am 02:53 Clear 89 31.7 55 12.8 31 31 SSE 6 9 29.83 1010 10 16 N/A
3:53 am 03:53 Clear 87 30.6 56 13.3 35 35 SSW 5 7 29.83 1010 10 16 N/A
4:53 am 04:53 Clear 87 30.6 56 13.3 35 35 SW 6 9 29.84 1010 10 16 N/A
5:53 am 05:53 Clear 85 29.4 56 13.3 37 37 SSE 3 6 29.86 1011 10 16 N/A
6:53 am 06:53 Sunny 86 30 56 13.3 36 36 SSW 5 7 29.87 1012 10 16 N/A
7:53 am 07:53 Sunny 88 31.1 56 13.3 34 34 S 3 6 29.88 1012 10 16 N/A
8:53 am 08:53 Sunny 91 32.8 56 13.3 31 31 E 5 7 29.88 1012 10 16 N/A
9:53 am 09:53 Sunny 95 35 55 12.8 26 26 E 8 13 29.88 1012 10 16 N/A
10:53 am 10:53 Sunny 98 36.7 54 12.2 23 23 ENE 5 7 29.87 1012 10 16 N/A
11:53 am 11:53 Sunny 100 37.8 53 11.7 21 21 ESE 8 13 29.84 1011 10 16 N/A
12:53 pm 12:53 Sunny 102 38.9 54 12.2 20 20 VRB 5 7 29.81 1010 10 16 N/A
1:53 pm 13:53 Sunny 105 40.6 53 11.7 18 18 SE 8 13 29.78 1009 10 16 N/A
2:53 pm 14:53 Sunny 107 41.7 52 11.1 16 16 SSE 13 20 29.75 1008 10 16 N/A
3:53 pm 15:53 Sunny 108 42.2 52 11.1 16 16 SE 14 22 29.72 1006 10 16 N/A
4:46 pm 16:46 Sunny 105 40.6 51 10.6 16 16 WSW 14 22 29.55 1001 10 16 N/A
4:53 pm 16:53 Sunny 105 40.6 50 10 16 16 WSW 13 20 29.72 1007 10 16 N/A
5:53 pm 17:53 Sunny 105 40.6 48 8.9 15 15 SW 5 7 29.71 1006 10 16 N/A
6:53 pm 18:53 Sunny 105 40.6 45 7.2 13 13 S 6 9 29.70 1006 10 16 N/A
7:53 pm 19:53 Clear 103 39.4 47 8.3 15 15 S 6 9 29.72 1006 10 16 N/A
8:53 pm 20:53 Clear 100 37.8 49 9.4 18 18 SW 3 6 29.74 1007 10 16 N/A
9:53 pm 21:53 Clear 97 36.1 51 10.6 21 21 N 3 6 29.75 1007 10 16 N/A
10:53 pm 22:53 Clear 94 34.4 51 10.6 23 23 NNW 6 9 29.75 1008 10 16 N/A
11:53 pm 23:53 Clear 93 33.9 50 10 23 23 N N/A 29.75 1007 10 16 N/A

Powered by AerisWeather